Погода в Лепеле

Погода в Лепеле : погода сейчас, прогноз погоды и архив. Всё, что Вы хотите узнать о погоде в Лепеле!

Хотите узнать прогноз погоды в Лепеле? Тогда Вам сюда: Погода в Лепеле

Поиск расширенной информации на нашем сайте:

Полезная информация: Колесные краны автомобильные либхер аренда автокранов.

Другие новости

Новости СМИ2

Главная страница сайта

Новости сайта

03.07.2017

Напоминаем, что на нашем специализированном сайте Метеоцентр.Азия вы можете получить высокодетализированные автоматические прогнозы погоды по пунктам России, СНГ и мира в авиационном формате (включающие направление и скорость ветра, видимость, явления погоды, количество и форму облачности, нижнюю и верхнюю границу облачности).

Рекомендуем: диски bmw

Погода в Лепеле - сегодня

Время (UTC), дата Ветер
(°,м/с) 
Видим.   Явления Облачность Т
(°С)
Тd
(°С)
f(%) Тe
(°С)
Pmin
(гПа)
dP
(гПа)
Po
(мм)
O2
(г/м3)
Тmin Tmax R s Состояние
почвы
06 07.09.17 270 (З) 10 км  {дождь}  10/10 240 м 
[St]
+8.6 +8.4 99 +9  1004.5    738  287  +8       
18 07.09.17 190 (Ю) 10 км    9/9 540 м 
[Sc]
+10.3 +9.3 94 +12  1005.3    738  285    +13.3       
06 08.09.17 260 (З) 10 км    8/4 300 м средняя 
[Sc|Ac trans]
+9.3 +8.6 95 +10  1006.4    739  286  +6.7         
18 08.09.17 190 (Ю) 14000 м    3/0 средняя, верхняя 
[Ac trans|Ci fib]
+11 +8.5 85 +11  1010.6    742  286    +16.6       
06 09.09.17 150 (ЮВ) 10 км  {дождь}  ?/?  
[Ac trans]
+12.5 +11.3 92 +16  1011.3    743  284  +9.3    0.1     
18 09.09.17 150 (ЮВ) 2{11}  10 км    3/0 верхняя 
[Ci fib]
+14.4 +11.4 82 +18  1010.8    743  282    +20.7       
06 10.09.17 160 (Ю) 15000 м    3/0 верхняя 
[Ci fib]
+15.2 +11.7 80 +19  1008.8    741  281  +12.4         
18 10.09.17 160 (Ю) 12000 м  {ливн. осадки}  6/0 средняя, верхняя 
[Ac trans|Ci fib]
+17.8 +14.5 81 +27  1007.9    741  277    +22.3  0.0     
06 11.09.17 160 (Ю) 11000 м  {дождь}  10/8 870 м средняя 
[Sc|As trans]
+16.6 +15.8 95 +27  1009.1    742  278  +14.6    0.1     
18 11.09.17 150 (ЮВ) 10 км    4/3 600 м верхняя 
[Sc|Ci fib]
+19.2 +16.9 87 +33  1008.2    741  275    +24.3       
06 12.09.17 160 (Ю) 17000 м    8/3 600 м верхняя 
[Sc|Ci fib]
+18.8 +15.6 82 +29  1005.2    739  275  +16.7         
18 12.09.17 150 (ЮВ) 12000 м    6/0 верхняя 
[Ci fib]
+19.7 +16.4 81 +33  1002.7    737  273    +26.7       
06 13.09.17 290 (З) 10 км  {дождь}  10/10 480 м 
[St]
+15 +13 88 +21  1001.6    736  278  +15    0.3     
18 13.09.17 170 (Ю) 10 км    3/3 600 м 
[Sc]
+13.8 +11.2 84 +17  1003.7    737  281    +18.2       
06 14.09.17 190 (Ю) 4-10{11}  13000 м    8/0 средняя 
[Ac trans]
+13.5 +8.9 74 +13  999.5    734  280  +11.8         
18 14.09.17 220 (ЮЗ) 3{13}  10 км  в посл. час ливневой дождь  9/9 600 м 
[Sc]
+14.6 +14 96 +23  1000.6    735  278    +19     
06 15.09.17 230 (ЮЗ) 6000 м  слаб. дождь  10/10 270 м 
[Frnb|Ns]
+10.8 +9.4 91 +11  1001.1    735  283  +10.8       
18 15.09.17 230 (ЮЗ) 4{14}  10 км  {дождь}  9/9 570 м 
[Sc]
+12.2 +8.4 78 +12  1009.9    742  285    +14     
18 16.09.17 160 (Ю) 10 км    8/0 средняя 
[Ac trans]
+13.3 +10.4 83 +17  1019.2    749  286    +18.2       
06 17.09.17 090 (В) 10 км  {дождь}  9/0 средняя 
[Ac As]
+12.4 +10.3 87 +15  1017.2    747  286  +11.1    0.1     
18 17.09.17 100 (В) 7000 м  слаб. дождь{ливн. осадки}  10/10 210 м 
[Frnb|Ns]
+13.9 +13.5 97 +21  1011.4    743  282    +16.5     
06 18.09.17 190 (Ю) 4-11  12000 м  {ливн. осадки, дождь}  3/3 600 м 
[Sc]
+16.3 +13.8 85 +23  999.4    734  276  +12.5       
18 18.09.17 180 (Ю) 4-11{16}  5000 м  дымка{дождь}  10/10 270 м 
[St]
+11.4 +10.6 95 +13  998.5    733  282    +17     
06 19.09.17 230 (ЮЗ) 4{15}  15000 м  {дождь}  8/6 600 м средняя 
[Sc|Ac trans]
+10.3 +7.8 84 +9  1012.3    744  287  +9       
18 19.09.17 180 (Ю) 2{12}  13000 м    ясно 
+11.2 +8.5 83 +11  1018.4    748  288    +15.9       
Время (UTC), дата Ветер
(°,м/с) 
Видим.   Явления Облачность Т
(°С)
Тd
(°С)
f(%) Тe
(°С)
Pmin
(гПа)
dP
(гПа)
Po
(мм)
O2
(г/м3)
Тmin Tmax R s Состояние
почвы

Для получения пояснительной информации подведите курсор к названию столбца.

ПОГОДА в Лепеле - архив

Всё, что Вы хотите узнать о погоде в Лепеле - удобно и подробно!

Выберите нужную дату (начиная с 1 января 2015* года) и нажмите кнопку "Найти".
Будут отображены архивные сводки погоды по пункту Лепель, начиная с указанной даты.


Отображать данные в формате CSV (для использования в таблицах Excel)


Внимание! Наш архив погоды предназначен исключительно для личного некоммерческого использования в познавательных целях. Если Вам необходимы официальные справки о состоянии погоды (для производственных, юридических, коммерческих и т.п. целей), обращайтесь в органы Росгидромета.

*Примечание: данная дата относится к архиву по метеостанциям СССР (Россия, СНГ, Балтия).
Архив по метеостанциям Зарубежной Европы и Азии (кроме Китая) хранится 10 дней, по другим регионам земного шара (Китай, Африка, Америка, Австралия, Океания) - 1 день.

Лепель - район местоположения метеостанции


Название, широта, долгота, высота метеостанции:
Лепель 54.9°ш. 28.7°д. 174 м над ур. моря [Беларусь]

Дополнительная информация

В oтличие oт бoльшинства пoгoдных сайтoв мы публикуем пoдрoбную метеoинфoрмацию в детальнoм прoфессиoнальнoм фoрмате.

Характеристики температуры и влажнoсти вoздуха измеряются на высoте 2 м в тени вдали oт зданий и деревьев.
Скoрoсть ветра измеряется на высoте 10 м (на урoвне рoста челoвека скoрoсть ветра ниже в 1.5-2 раза). Если метеoстанция нахoдится в гoрoде или в лесу, тo скoрoсть ветра занижена на 2-4 м/с пo сравнению с oткрытым местoм. Скoрoсть ветра над акватoриями крупных рек и oзёр, а также на вершинах хoлмoв на 2-5 м/с выше, чем в oбычных услoвиях.
Атмoсфернoе давление в разных тoчках местнoсти мoжет значительнo oтличаться oт давления на метеoстанции, в зависимoсти oт услoвий рельефа (при пoдъёме на 10 м давление пoнижается примернo на 1 мм рт.ст.).